星链-31259 (STARLINK-31259 )

导读

STARLINK-31259是美国SpaceX星链星座的一颗卫星,于2024年2月29日发射。作为星链互联网卫星网络的组成部分,它旨在为全球提供高速低延迟互联网服务,尤其覆盖偏远地区。星链项目通过批量发射卫星构建近地轨道星座,此卫星是该星座持续扩容中的一员,进一步推进了星链的全球覆盖布局。

Basic Information
目录编号:
59076
目录名称:
STARLINK-31259
国际标识:
2024-041C
轨道中心:
EARTH
卫星名称:
星链-31259
卫星全名:
星链-31259 (STARLINK-31259 )
卫星状态:
在轨 (已飞行925 天)
发射日期:
2024-02-29 UTC
国别 :
美国 (US)
星等 :
--
This satellite is enrolled in the Space Conjunction Data Service (SCDS) and the current flight risk assessment level is: No High Risk
Orbit Information
数据来源 国际轨道数据
星历时间: 2026-09-11T15:23:35+0800
10小时前
查看轨道信息
半长轴: 6861.205km
偏心率: 0.0001981
轨道倾角: 43.008°
近地点辐角 287.898°
升交点赤经 342.076°
平近点角 72.166°
近地点: 481.708km
远地点: 484.428km
周期: 94.267分钟
每日圈数: 15.27574
Detailed Information
固有亮度:
5
最大亮度:
0.3
卫星平台:
Starlink v2.0 mini
覆盖范围:
全球
运营商:
太空探索技术公司
运营商所在国:
美国
制造商(研发单位):
太空探索技术公司
制造商所在国:
美国
使用方式:
暂无
Satellite Introduction
星链(Starlink)计划是由太空探索技术公司(SpaceX)提出的一个巨型低轨卫星互联网星座项目,计划在2019年至2024年间在太空搭建由约1.2万颗卫星组成的“星链”网络,其中1584颗将部署在地球上空550千米处的近地轨道,并从2020年开始工作。该卫星仍在工作。
2D Orbit Map
3D Orbit Map
Orbit Altitude Analysis Chart
Orbit Inclination Analysis Chart
Orbit Comprehensive Analysis Chart
View Comprehensive Chart
Conjunction Data List
Event ID Objects TCA Miss Dist (km) Collision Risk Probability Collision Risk Index (CRI) Action
CDM_260913-111705-907606-712821
2026-09-13T
11:17:23+0000
0.650 km
远距离
8.077662E-5 中风险 0.73
CDM_260913-092305-907606-799421
2026-09-13T
09:23:35+0000
0.976 km
远距离
1.890096E-5 中风险 0.61
CDM_260913-074005-907606-732221
2026-09-13T
07:40:19+0000
1.052 km
极远距离
4.810105E-6 低风险 0.49
CDM_260913-193505-907606-799421
2026-09-13T
19:35:35+0000
1.605 km
极远距离
3.549942E-6 低风险 0.46
CDM_260913-032705-907606-396621
2026-09-13T
03:27:45+0000
1.811 km
极远距离
2.829324E-6 低风险 0.44
CDM_260913-120505-907606-396621
2026-09-13T
12:05:35+0000
1.893 km
极远距离
2.509498E-6 低风险 0.43
CDM_260913-133905-907606-396621
2026-09-13T
13:39:44+0000
1.900 km
极远距离
2.482773E-6 低风险 0.43
CDM_260913-074905-907606-799421
2026-09-13T
07:49:26+0000
1.986 km
极远距离
1.963402E-6 低风险 0.41
CDM_260913-015305-907606-396621
2026-09-13T
01:53:36+0000
2.346 km
极远距离
1.528313E-6 低风险 0.39
CDM_260913-094305-907606-712822
2026-09-13T
09:43:13+0000
2.398 km
极远距离
1.486264E-6 低风险 0.38
Miss Distance Evolution Trend with All Objects
Collision Probability Evolution Trend with All Objects